User: anonymous   Login
Location: Holcomb Observatory
(44.4922°N, 73.1654°W)
Time: 15:40:16
(UTC-04:00)
Language:

Cosmos 1727 Rocket - Orbit

View from above orbital plane
View from above orbital plane
View from above satellite
View from above satellite

Ground track
Ground track

The orbit data is extracted from the following two-line orbital elements,

1 16511U 86008B   17233.19647653  .00000002  00000-0 -13706-4 0  9997
2 16511  82.9468 171.7134 0025570 100.1266  11.2967 13.75813491585211
Epoch (UTC): 21 August 2017 04:42:55
Eccentricity: 0.0025570
inclination: 82.9468°
perigee height: 960 km
apogee height: 997 km
right ascension of ascending node: 171.7134°
argument of perigee: 100.1266°
revolutions per day: 13.75813491
mean anomaly at epoch: 11.2967°
orbit number at epoch: 58521

The dashed part of the orbit path shows where the satellite is in the earth's shadow,  

DLR